sat.trackr.live / text

‹ back to catalog

STARLINK-4660

NORAD 53609 · 2022-104X

PAYLOAD ACTIVE UNKNOWN

§ Identity

Operator
Country
US
Launch date
2022-08-28
Launch site
AFETR
Launch vehicle
Mass (kg)
RCS (m²)

Purposes: comms

External: N2YO · Heavens-Above · Gunter

§ Orbital elements

Epoch: 2026-09-20T21:51:12.271680Z

Period
93.85 min
Inclination
53.1588°
Eccentricity
0.0001175
Mean motion
15.34386830 rev/d
Perigee alt
461.9 km
Apogee alt
463.5 km
Semi-major
6,840.9 km
B*
7.8529e-6
RAAN
65.4586°
Arg perigee
83.4682°
Mean anomaly
276.6454°
Rev number
22,539

§ Raw data

STARLINK-46601 53609U 22104X   26263.91055870 -.00000111  00000+0  78529-5 0  99952 53609  53.1588  65.4586 0001175  83.4682 276.6454 15.34386830225390

JSON: /api/v1/satellites/53609 · /tle

For live sub-satellite position, see the globe view (requires WebGL).

§ Visibility from observer

Set your observer location to see the next 7 days of passes ≥ 10°. The values pass through the URL so the page stays shareable.

No JS? Fill the form by hand. The geolocation button needs JavaScript.